| time (UTC) | temp C | wind direction | speed KPH | gust KPH | rain 1hr cm | rain 24hr cm | rain mn cm | humidity % | barometer mb |
| 20260510024504 | 22 | 53 | 0.0 | 0.0 | 0.00 | 0.00 | 0.00 | 34 | 1014.8 |
| 20260510023003 | 22 | 97 | 0.0 | 0.0 | 0.00 | 0.00 | 0.00 | 35 | 1015.0 |
| 20260510021506 | 22 | 103 | 0.0 | 3.2 | 0.00 | 0.00 | 0.00 | 36 | 1015.2 |
| 20260510020001 | 23 | 117 | 4.8 | 11.3 | 0.00 | 0.00 | 0.00 | 30 | 1015.1 |
| 20260510014542 | 23 | 117 | 8.0 | 11.3 | 0.00 | 0.00 | 0.00 | 28 | 1015.3 |
| 20260510013049 | 23 | 109 | 9.7 | 14.5 | 0.00 | 0.00 | 0.00 | 27 | 1015.4 |
| 20260510011523 | 23 | 108 | 14.5 | 17.7 | 0.00 | 0.00 | 0.00 | 25 | 1015.5 |
| 20260510010019 | 23 | 103 | 12.9 | 17.7 | 0.00 | 0.00 | 0.00 | 28 | 1015.7 |
| 20260510004602 | 23 | 115 | 14.5 | 19.3 | 0.00 | 0.00 | 0.00 | 30 | 1015.8 |
| 20260510003101 | 24 | 93 | 11.3 | 19.3 | 0.00 | 0.00 | 0.00 | 28 | 1015.9 |
| 20260510001540 | 24 | 118 | 14.5 | 20.9 | 0.00 | 0.00 | 0.00 | 28 | 1016.0 |
| 20260510000040 | 24 | 143 | 9.7 | 19.3 | 0.00 | 0.00 | 0.00 | 28 | 1016.1 |
| 20260509234534 | 24 | 148 | 9.7 | 16.1 | 0.00 | 0.00 | 0.00 | 27 | 1016.1 |
| 20260509233034 | 25 | 96 | 6.4 | 14.5 | 0.00 | 0.00 | 0.00 | 26 | 1016.2 |
| 20260509231500 | 25 | 169 | 3.2 | 11.3 | 0.00 | 0.00 | 0.00 | 27 | 1016.3 |
| 20260509230107 | 25 | 166 | 4.8 | 12.9 | 0.00 | 0.00 | 0.00 | 29 | 1016.5 |
| 20260509224543 | 24 | 101 | 9.7 | 14.5 | 0.00 | 0.00 | 0.00 | 29 | 1016.6 |
| 20260509223041 | 25 | 183 | 8.0 | 14.5 | 0.00 | 0.00 | 0.00 | 29 | 1016.9 |
| 20260509221540 | 24 | 108 | 9.7 | 12.9 | 0.00 | 0.00 | 0.00 | 29 | 1017.1 |
| 20260509220038 | 24 | 126 | 6.4 | 11.3 | 0.00 | 0.00 | 0.00 | 29 | 1017.2 |
| 20260509214534 | 24 | 110 | 6.4 | 12.9 | 0.00 | 0.00 | 0.00 | 30 | 1017.4 |
| 20260509213032 | 23 | 149 | 8.0 | 17.7 | 0.00 | 0.00 | 0.00 | 31 | 1017.7 |
| 20260509211531 | 23 | 200 | 9.7 | 16.1 | 0.00 | 0.00 | 0.00 | 32 | 1017.7 |
| 20260509210029 | 23 | 140 | 8.0 | 17.7 | 0.00 | 0.00 | 0.00 | 33 | 1017.8 |
| 20260509204522 | 23 | 157 | 6.4 | 12.9 | 0.00 | 0.00 | 0.00 | 34 | 1018.0 |
| 20260509203033 | 23 | 129 | 8.0 | 16.1 | 0.00 | 0.00 | 0.00 | 32 | 1018.1 |
| 20260509201501 | 22 | 122 | 8.0 | 16.1 | 0.00 | 0.00 | 0.00 | 33 | 1018.4 |
| 20260509200107 | 22 | 159 | 6.4 | 14.5 | 0.00 | 0.00 | 0.00 | 36 | 1018.6 |
| 20260509194541 | 22 | 141 | 8.0 | 17.7 | 0.00 | 0.00 | 0.00 | 38 | 1018.7 |
| 20260509193044 | 22 | 122 | 9.7 | 16.1 | 0.00 | 0.00 | 0.00 | 38 | 1019.0 |
| 20260509191518 | 21 | 111 | 11.3 | 16.1 | 0.00 | 0.00 | 0.00 | 39 | 1019.0 |
| 20260509190019 | 21 | 132 | 8.0 | 14.5 | 0.00 | 0.00 | 0.00 | 39 | 1019.1 |
| 20260509184602 | 21 | 203 | 8.0 | 16.1 | 0.00 | 0.00 | 0.00 | 39 | 1019.3 |
| 20260509183055 | 20 | 191 | 8.0 | 16.1 | 0.00 | 0.00 | 0.00 | 42 | 1019.6 |
| 20260509181534 | 20 | 321 | 4.8 | 14.5 | 0.00 | 0.00 | 0.00 | 42 | 1019.8 |
| 20260509180032 | 20 | 148 | 6.4 | 12.9 | 0.00 | 0.00 | 0.00 | 43 | 1019.8 |
| 20260509174516 | 19 | 100 | 11.3 | 16.1 | 0.00 | 0.00 | 0.00 | 45 | 1020.0 |
| 20260509173016 | 19 | 153 | 8.0 | 14.5 | 0.00 | 0.00 | 0.00 | 44 | 1020.1 |
| 20260509171553 | 19 | 143 | 8.0 | 16.1 | 0.00 | 0.00 | 0.00 | 44 | 1020.2 |
| 20260509170100 | 18 | 172 | 4.8 | 17.7 | 0.00 | 0.00 | 0.00 | 43 | 1020.3 |
| 20260509164531 | 18 | 173 | 6.4 | 12.9 | 0.00 | 0.00 | 0.00 | 44 | 1020.2 |
| 20260509163051 | 18 | 186 | 8.0 | 16.1 | 0.00 | 0.00 | 0.00 | 43 | 1020.2 |
| 20260509161518 | 18 | 212 | 9.7 | 22.5 | 0.00 | 0.00 | 0.00 | 46 | 1020.3 |
| 20260509160013 | 17 | 198 | 14.5 | 20.9 | 0.00 | 0.00 | 0.00 | 47 | 1020.3 |
| 20260509154510 | 17 | 195 | 14.5 | 22.5 | 0.00 | 0.00 | 0.00 | 48 | 1020.3 |
| 20260509153016 | 17 | 238 | 17.7 | 25.7 | 0.00 | 0.00 | 0.00 | 50 | 1020.3 |
| 20260509151504 | 16 | 203 | 16.1 | 24.1 | 0.00 | 0.00 | 0.00 | 53 | 1020.3 |
| 20260509150001 | 16 | 260 | 19.3 | 24.1 | 0.00 | 0.00 | 0.00 | 52 | 1020.4 |
| 20260509144602 | 15 | 250 | 14.5 | 24.1 | 0.00 | 0.00 | 0.00 | 54 | 1020.2 |
| 20260509143059 | 14 | 233 | 16.1 | 22.5 | 0.00 | 0.00 | 0.00 | 55 | 1020.1 |
| 20260509141533 | 13 | 263 | 9.7 | 16.1 | 0.00 | 0.00 | 0.00 | 57 | 1019.9 |
| 20260509140028 | 13 | 277 | 8.0 | 12.9 | 0.00 | 0.00 | 0.00 | 57 | 1019.9 |
| 20260509134506 | 12 | 261 | 11.3 | 14.5 | 0.00 | 0.00 | 0.00 | 58 | 1019.8 |
| 20260509133006 | 12 | 270 | 9.7 | 16.1 | 0.00 | 0.00 | 0.00 | 61 | 1019.6 |
| 20260509131547 | 12 | 263 | 11.3 | 14.5 | 0.00 | 0.00 | 0.00 | 61 | 1019.6 |
| 20260509130052 | 11 | 276 | 8.0 | 14.5 | 0.00 | 0.00 | 0.00 | 61 | 1019.5 |
| 20260509124540 | 11 | 278 | 8.0 | 17.7 | 0.00 | 0.00 | 0.00 | 62 | 1019.4 |
| 20260509123032 | 12 | 277 | 9.7 | 14.5 | 0.00 | 0.00 | 0.00 | 59 | 1019.6 |
| 20260509121538 | 12 | 280 | 4.8 | 9.7 | 0.00 | 0.00 | 0.00 | 59 | 1019.4 |
| 20260509120024 | 11 | 293 | 8.0 | 14.5 | 0.00 | 0.00 | 0.00 | 62 | 1019.4 |
| 20260509114545 | 11 | 276 | 9.7 | 14.5 | 0.00 | 0.00 | 0.00 | 62 | 1019.3 |
| 20260509113023 | 11 | 276 | 6.4 | 12.9 | 0.00 | 0.00 | 0.00 | 62 | 1019.3 |
| 20260509111521 | 11 | 229 | 6.4 | 12.9 | 0.00 | 0.00 | 0.00 | 58 | 1019.2 |
| 20260509110021 | 11 | 151 | 0.0 | 16.1 | 0.00 | 0.00 | 0.00 | 57 | 1019.1 |
| 20260509104503 | 11 | 16 | 1.6 | 11.3 | 0.00 | 0.00 | 0.00 | 60 | 1019.0 |
| 20260509103059 | 14 | 335 | 9.7 | 16.1 | 0.00 | 0.00 | 0.00 | 48 | 1018.7 |
| 20260509101541 | 13 | 49 | 3.2 | 14.5 | 0.00 | 0.00 | 0.00 | 52 | 1018.9 |
| 20260509100040 | 13 | 308 | 9.7 | 11.3 | 0.00 | 0.00 | 0.00 | 53 | 1018.7 |
| 20260509094525 | 13 | 345 | 4.8 | 12.9 | 0.00 | 0.00 | 0.00 | 50 | 1018.6 |
| 20260509093022 | 13 | 304 | 9.7 | 11.3 | 0.00 | 0.00 | 0.00 | 53 | 1018.6 |
| 20260509091504 | 12 | 311 | 4.8 | 6.4 | 0.00 | 0.00 | 0.00 | 51 | 1018.6 |
| 20260509090011 | 13 | 342 | 8.0 | 12.9 | 0.00 | 0.00 | 0.00 | 46 | 1018.5 |
| 20260509084547 | 13 | 359 | 0.0 | 0.0 | 0.00 | 0.00 | 0.00 | 49 | 1018.5 |
| 20260509083050 | 14 | 1 | 0.0 | 0.0 | 0.00 | 0.00 | 0.00 | 46 | 1018.4 |
| 20260509081531 | 15 | 62 | 0.0 | 1.6 | 0.00 | 0.00 | 0.00 | 42 | 1018.4 |
| 20260509080033 | 15 | 8 | 4.8 | 8.0 | 0.00 | 0.00 | 0.00 | 41 | 1018.2 |
| 20260509074534 | 16 | 233 | 11.3 | 24.1 | 0.00 | 0.00 | 0.00 | 44 | 1018.1 |
| 20260509073025 | 16 | 41 | 1.6 | 8.0 | 0.00 | 0.00 | 0.00 | 41 | 1017.8 |
| 20260509071524 | 15 | 82 | 11.3 | 19.3 | 0.00 | 0.00 | 0.00 | 44 | 1017.7 |
| 20260509070032 | 16 | 11 | 11.3 | 14.5 | 0.00 | 0.00 | 0.00 | 40 | 1017.1 |
| 20260509064521 | 16 | 311 | 11.3 | 14.5 | 0.00 | 0.00 | 0.00 | 41 | 1017.1 |
| 20260509063020 | 17 | 97 | 4.8 | 11.3 | 0.00 | 0.00 | 0.00 | 39 | 1017.2 |
| 20260509061520 | 18 | 293 | 1.6 | 25.7 | 0.00 | 0.00 | 0.00 | 37 | 1016.8 |
| 20260509060100 | 19 | 335 | 24.1 | 33.8 | 0.00 | 0.00 | 0.00 | 35 | 1016.4 |
| 20260509054600 | 19 | 360 | 17.7 | 33.8 | 0.00 | 0.00 | 0.00 | 35 | 1016.2 |
| 20260509053044 | 20 | 344 | 30.6 | 43.5 | 0.00 | 0.00 | 0.00 | 34 | 1016.0 |
| 20260509051543 | 19 | 323 | 17.7 | 35.4 | 0.00 | 0.00 | 0.00 | 34 | 1015.8 |
| 20260509050040 | 20 | 335 | 22.5 | 37.0 | 0.00 | 0.00 | 0.00 | 33 | 1015.7 |
| 20260509044518 | 20 | 335 | 22.5 | 32.2 | 0.00 | 0.00 | 0.00 | 32 | 1015.6 |
| 20260509043104 | 20 | 338 | 22.5 | 35.4 | 0.00 | 0.00 | 0.00 | 31 | 1015.6 |
| 20260509043002 | 20 | 343 | 25.7 | 35.4 | 0.00 | 0.00 | 0.00 | 31 | 1015.6 |
| 20260509041600 | 20 | 356 | 17.7 | 25.7 | 0.00 | 0.00 | 0.00 | 31 | 1015.5 |
| 20260509040048 | 20 | 349 | 14.5 | 22.5 | 0.00 | 0.00 | 0.00 | 29 | 1015.3 |
| 20260509034545 | 20 | 338 | 16.1 | 30.6 | 0.00 | 0.00 | 0.00 | 28 | 1014.9 |
| 20260509033058 | 20 | 332 | 17.7 | 29.0 | 0.00 | 0.00 | 0.00 | 27 | 1014.7 |
| 20260509031540 | 20 | 324 | 20.9 | 32.2 | 0.00 | 0.00 | 0.00 | 25 | 1014.5 |
| 20260509030039 | 21 | 326 | 17.7 | 32.2 | 0.00 | 0.00 | 0.00 | 23 | 1014.3 |